EW6819 Weather Reports


Display with metric or nautical units.
time (UTC)temp
F
wind
direction
speed
MPH
gust
MPH
rain 1hr
in
rain 24hr
in
rain mn
in
humidity
%
barometer
mb
20260508142003 40 184 2.0 6.0 0.01 0.10 0.10 55 1011.3
20260508141503 40 240 1.0 5.0 0.01 0.10 0.10 56 1011.4
20260508141003 39 292 2.0 4.0 0.01 0.10 0.10 56 1011.4
20260508140503 39 280 1.0 4.0 0.02 0.10 0.10 56 1011.4
20260508140003 39 239 1.0 4.0 0.02 0.10 0.10 57 1011.4
20260508135713 39 256 2.0 4.0 0.03 0.10 0.10 58 1011.6
20260508135003 38 258 1.0 4.0 0.03 0.10 0.10 57 1011.5
20260508134503 38 220 0.0 3.0 0.03 0.10 0.10 58 1011.6
20260508134003 37 216 1.0 5.0 0.03 0.10 0.10 57 1011.6
20260508133713 37 206 1.0 5.0 0.03 0.10 0.10 57 1011.7
20260508133003 37 186 2.0 5.0 0.03 0.10 0.10 57 1011.9
20260508132503 37 199 1.0 5.0 0.02 0.09 0.09 57 1011.8
20260508132003 37 230 1.0 3.0 0.03 0.09 0.09 57 1011.6
20260508131503 37 244 1.0 2.0 0.03 0.09 0.09 57 1011.7
20260508131003 37 318 0.0 2.0 0.03 0.09 0.09 57 1011.7
20260508130503 37 325 0.0 1.0 0.02 0.08 0.08 57 1011.6
20260508130004 37 327 0.0 3.0 0.02 0.08 0.08 57 1011.5
20260508125503 37 306 1.0 3.0 0.02 0.07 0.07 57 1011.5
20260508125003 37 254 1.0 3.0 0.02 0.07 0.07 57 1011.4
20260508124503 37 221 0.0 2.0 0.03 0.07 0.07 57 1011.4
20260508124213 37 222 1.0 3.0 0.03 0.07 0.07 57 1011.5
20260508123503 37 240 1.0 4.0 0.05 0.07 0.07 57 1011.3
20260508123003 37 250 1.0 7.0 0.06 0.07 0.07 57 1011.2
20260508122503 37 249 2.0 7.0 0.07 0.07 0.07 57 1011.1
20260508122003 37 248 2.0 7.0 0.06 0.06 0.06 58 1011.0
20260508121503 37 256 2.0 7.0 0.06 0.06 0.06 58 1011.1
20260508121003 37 262 2.0 7.0 0.06 0.06 0.06 59 1011.0
20260508120503 37 256 2.0 7.0 0.06 0.06 0.06 59 1010.9
20260508120003 37 257 2.0 6.0 0.06 0.06 0.06 60 1011.0
20260508115503 37 264 1.0 6.0 0.05 0.05 0.05 60 1010.8
20260508115003 37 256 1.0 6.0 0.05 0.05 0.05 60 1010.8
20260508114503 37 258 2.0 7.0 0.04 0.04 0.04 59 1010.8
20260508114003 38 260 3.0 7.0 0.04 0.04 0.04 59 1010.8
20260508113503 38 257 1.0 7.0 0.02 0.02 0.02 59 1010.7
20260508113004 38 247 0.0 3.0 0.01 0.01 0.01 59 1010.6
20260508112503 38 209 0.0 1.0 0.00 0.00 0.00 59 1010.4
20260508112003 38 209 0.0 3.0 0.00 0.00 0.00 59 1010.1
20260508111503 38 209 1.0 3.0 0.00 0.00 0.00 58 1010.0
20260508111003 39 209 1.0 3.0 0.00 0.00 0.00 58 1010.0
20260508110503 39 212 1.0 3.0 0.00 0.00 0.00 58 1010.1
20260508110213 39 223 1.0 3.0 0.00 0.00 0.00 57 1010.2
20260508105503 39 196 3.0 6.0 0.00 0.00 0.00 58 1010.2
20260508105003 39 197 3.0 6.0 0.00 0.00 0.00 58 1010.1
20260508104503 39 207 2.0 4.0 0.00 0.00 0.00 57 1010.2
20260508104003 39 208 2.0 4.0 0.00 0.00 0.00 58 1010.1
20260508103503 39 211 1.0 4.0 0.00 0.00 0.00 58 1010.2
20260508103003 39 211 0.0 3.0 0.00 0.00 0.00 59 1010.2
20260508102503 39 0 0.0 0.0 0.00 0.00 0.00 58 1010.1
20260508102213 39 0 0.0 0.0 0.00 0.00 0.00 58 1010.1
20260508101503 39 0 0.0 0.0 0.00 0.00 0.00 58 1010.2
20260508101212 39 0 0.0 0.0 0.00 0.00 0.00 58 1010.2
20260508100503 39 211 0.0 3.0 0.00 0.00 0.00 58 1010.2
20260508100212 39 211 1.0 3.0 0.00 0.00 0.00 58 1010.1
20260508095503 39 206 1.0 3.0 0.00 0.00 0.00 58 1010.3
20260508095003 39 193 1.0 4.0 0.00 0.00 0.00 58 1010.4
20260508094503 39 187 2.0 4.0 0.00 0.00 0.00 58 1010.4
20260508094003 39 182 2.0 6.0 0.00 0.00 0.00 58 1010.4
20260508093503 39 180 2.0 6.0 0.00 0.00 0.00 58 1010.3
20260508093003 39 188 2.0 5.0 0.00 0.00 0.00 58 1010.4
20260508092503 38 193 2.0 5.0 0.00 0.00 0.00 59 1010.5
20260508092003 38 202 1.0 5.0 0.00 0.00 0.00 59 1010.6
20260508091713 38 206 1.0 5.0 0.00 0.00 0.00 59 1010.5
20260508091214 38 209 1.0 4.0 0.00 0.00 0.00 59 1010.6
20260508090503 38 214 1.0 4.0 0.00 0.00 0.00 59 1010.5
20260508090003 38 224 0.0 3.0 0.00 0.00 0.00 59 1010.5
20260508085713 38 242 0.0 2.0 0.00 0.00 0.00 59 1010.5
20260508085214 38 246 1.0 3.0 0.00 0.00 0.00 59 1010.5
20260508084503 38 258 0.0 3.0 0.00 0.00 0.00 59 1010.4
20260508084003 38 264 0.0 2.0 0.00 0.00 0.00 60 1010.3
20260508083503 37 260 1.0 3.0 0.00 0.00 0.00 60 1010.3
20260508083003 37 258 1.0 3.0 0.00 0.00 0.00 60 1010.4
20260508082503 37 256 1.0 3.0 0.00 0.00 0.00 60 1010.3
20260508082003 37 255 1.0 3.0 0.00 0.00 0.00 60 1010.2
20260508081503 37 255 1.0 3.0 0.00 0.00 0.00 60 1010.1
20260508081003 37 255 1.0 2.0 0.00 0.00 0.00 60 1010.0
20260508080503 37 256 0.0 2.0 0.00 0.00 0.00 61 1010.0
20260508080003 37 256 1.0 2.0 0.00 0.00 0.00 61 1010.0
20260508075503 37 255 1.0 3.0 0.00 0.00 0.00 61 1010.0
20260508075003 37 255 0.0 3.0 0.00 0.00 0.00 62 1010.1
20260508074503 37 255 0.0 2.0 0.00 0.00 0.00 61 1010.1
20260508074003 37 255 0.0 2.0 0.00 0.00 0.00 62 1010.0
20260508073503 37 255 0.0 2.0 0.00 0.00 0.00 62 1010.1
20260508073214 37 256 0.0 2.0 0.00 0.00 0.00 62 1010.1
20260508072503 37 256 0.0 3.0 0.00 0.00 0.00 62 1010.1
20260508072004 37 222 0.0 4.0 0.00 0.00 0.00 62 1010.1
20260508071503 38 227 1.0 4.0 0.00 0.00 0.00 61 1010.2
20260508071003 38 254 1.0 3.0 0.00 0.00 0.00 62 1010.4
20260508070503 38 255 1.0 3.0 0.00 0.00 0.00 62 1010.5
20260508070003 38 255 0.0 3.0 0.00 0.00 0.00 62 1010.2
20260508065503 38 264 1.0 7.0 0.00 0.00 0.00 62 1010.2
20260508065003 38 271 2.0 7.0 0.00 0.00 0.00 63 1010.3
20260508064503 38 275 1.0 3.0 0.00 0.00 0.00 63 1010.4
20260508064003 38 268 1.0 3.0 0.00 0.00 0.00 63 1010.5
20260508063503 39 261 1.0 3.0 0.00 0.00 0.00 63 1010.3
20260508063003 39 251 0.0 2.0 0.00 0.00 0.00 62 1010.2
20260508062503 40 252 0.0 2.0 0.00 0.00 0.00 62 1010.2
20260508062003 40 0 0.0 0.0 0.00 0.00 0.00 62 1010.4
20260508061503 40 251 0.0 2.0 0.00 0.00 0.00 62 1010.7
20260508061003 40 259 1.0 4.0 0.00 0.00 0.00 62 1010.6
20260508060712 40 256 1.0 4.0 0.00 0.00 0.00 62 1010.6
20260508060003 40 243 1.0 6.0 0.00 0.00 0.00 62 1010.5
20260508055714 40 249 1.0 6.0 0.00 0.00 0.00 63 1010.5
20260508055003 40 277 1.0 2.0 0.00 0.00 0.00 62 1010.5
20260508054714 40 277 0.0 2.0 0.00 0.00 0.00 62 1010.5
20260508054003 40 277 0.0 1.0 0.00 0.00 0.00 62 1010.5
20260508053503 40 277 0.0 1.0 0.00 0.00 0.00 62 1010.5
20260508053003 40 277 0.0 1.0 0.00 0.00 0.00 62 1010.5
20260508052503 40 277 0.0 3.0 0.00 0.00 0.00 61 1010.6
20260508052003 40 277 0.0 3.0 0.00 0.00 0.00 61 1010.7
20260508051503 41 0 0.0 0.0 0.00 0.00 0.00 61 1010.6
20260508051212 41 0 0.0 0.0 0.00 0.00 0.00 61 1010.6
20260508050503 41 0 0.0 0.0 0.00 0.00 0.00 60 1010.6
20260508050003 41 0 0.0 0.0 0.00 0.00 0.00 60 1010.6
20260508045503 41 0 0.0 0.0 0.00 0.00 0.00 60 1010.6
20260508045003 42 0 0.0 0.0 0.00 0.00 0.00 60 1010.6
20260508044503 42 271 0.0 3.0 0.00 0.00 0.00 59 1010.5
20260508044003 42 277 2.0 7.0 0.00 0.00 0.00 59 1010.5
20260508043503 42 281 2.0 7.0 0.00 0.00 0.00 59 1010.6
20260508043003 42 287 0.0 7.0 0.00 0.00 0.00 58 1010.6
20260508042503 42 262 1.0 4.0 0.00 0.00 0.00 58 1010.5
20260508042003 42 265 3.0 10.0 0.00 0.00 0.00 58 1010.3
20260508041713 42 267 3.0 10.0 0.00 0.00 0.00 58 1010.2
20260508041003 42 298 2.0 8.0 0.00 0.00 0.00 57 1010.3
20260508040713 42 316 1.0 5.0 0.00 0.00 0.00 56 1010.2
20260508040003 42 273 1.0 6.0 0.00 0.00 0.00 55 1010.3
20260508035503 42 248 0.0 3.0 0.00 0.00 0.00 54 1010.2
20260508035214 42 255 1.0 6.0 0.00 0.00 0.00 55 1010.1
20260508034503 42 264 2.0 6.0 0.00 0.00 0.00 54 1010.1
20260508034214 42 265 1.0 6.0 0.00 0.00 0.00 53 1009.9
20260508033713 42 264 2.0 9.0 0.00 0.00 0.00 54 1010.0
20260508033003 42 254 1.0 4.0 0.00 0.00 0.00 54 1010.0
20260508032503 42 250 2.0 7.0 0.00 0.00 0.00 53 1010.0
20260508032003 42 254 2.0 8.0 0.00 0.00 0.00 53 1010.1
20260508031713 42 252 2.0 8.0 0.00 0.00 0.00 53 1010.1
20260508031003 42 244 1.0 4.0 0.00 0.00 0.00 53 1010.1
20260508030503 42 245 1.0 7.0 0.00 0.00 0.00 54 1010.2
20260508030003 42 247 1.0 7.0 0.00 0.00 0.00 54 1010.1
20260508025503 43 265 0.0 2.0 0.00 0.00 0.00 55 1010.1
20260508025003 43 263 0.0 3.0 0.00 0.00 0.00 54 1010.3
20260508024503 42 300 0.0 4.0 0.00 0.00 0.00 54 1010.4
20260508024003 42 304 1.0 4.0 0.00 0.00 0.00 56 1010.4
20260508023503 42 272 1.0 4.0 0.00 0.00 0.00 56 1010.5
20260508023003 42 265 3.0 8.0 0.00 0.00 0.00 55 1010.4
20260508022503 42 244 4.0 10.0 0.00 0.00 0.00 56 1010.3
20260508022214 41 241 3.0 10.0 0.00 0.00 0.00 57 1010.2
20260508021503 41 260 3.0 6.0 0.00 0.00 0.00 59 1010.1
20260508021003 40 259 2.0 6.0 0.00 0.00 0.00 60 1010.0
20260508020503 40 264 2.0 6.0 0.00 0.00 0.00 61 1010.0
20260508020003 40 266 3.0 4.0 0.00 0.00 0.00 61 1009.9
20260508015503 39 269 3.0 4.0 0.00 0.00 0.00 62 1009.9
20260508015003 39 270 3.0 4.0 0.00 0.00 0.00 62 1009.8
20260508014504 39 273 3.0 4.0 0.00 0.00 0.00 62 1009.9
20260508014003 39 276 3.0 4.0 0.00 0.00 0.00 62 1009.7
20260508013712 39 277 3.0 4.0 0.00 0.00 0.00 61 1009.7
20260508013003 39 279 3.0 4.0 0.00 0.00 0.00 61 1009.7
20260508012712 40 279 3.0 4.0 0.00 0.00 0.00 60 1009.6
20260508012003 40 282 3.0 4.0 0.00 0.00 0.00 60 1009.3
20260508011503 40 289 2.0 4.0 0.00 0.00 0.00 59 1009.2
20260508011213 40 291 2.0 4.0 0.00 0.00 0.00 59 1009.1
20260508010503 41 292 2.0 4.0 0.00 0.00 0.00 59 1009.4
20260508010003 41 292 2.0 4.0 0.00 0.00 0.00 59 1009.5
20260508005503 42 292 2.0 3.0 0.00 0.00 0.00 59 1009.5
20260508005003 42 292 2.0 3.0 0.00 0.00 0.00 57 1009.5
20260508004503 42 292 2.0 3.0 0.00 0.00 0.00 57 1009.5
20260508004003 43 301 2.0 3.0 0.00 0.00 0.00 54 1009.4
20260508003503 43 304 2.0 4.0 0.00 0.00 0.00 54 1009.5
20260508003003 43 305 1.0 4.0 0.00 0.00 0.00 53 1009.4
20260508002503 44 316 1.0 5.0 0.00 0.00 0.00 53 1009.4
20260508002003 44 311 2.0 5.0 0.00 0.00 0.00 52 1009.2
20260508001503 45 328 3.0 6.0 0.00 0.00 0.00 52 1009.1
20260508001003 45 350 3.0 9.0 0.00 0.00 0.00 51 1009.0
20260508000503 45 355 2.0 9.0 0.00 0.00 0.00 51 1009.0
20260508000003 45 352 2.0 4.0 0.00 0.00 0.00 52 1009.1
20260507235503 46 347 1.0 4.0 0.00 0.00 0.00 51 1009.0
20260507235003 46 346 1.0 6.0 0.00 0.00 0.00 50 1009.1
20260507234714 46 353 2.0 6.0 0.00 0.00 0.00 50 1009.0
20260507234003 47 357 3.0 6.0 0.00 0.00 0.00 48 1009.0
20260507233503 47 350 3.0 5.0 0.00 0.00 0.00 48 1008.9
20260507233003 47 350 4.0 8.0 0.00 0.00 0.00 48 1008.9
20260507232503 48 353 3.0 8.0 0.00 0.00 0.00 47 1008.9
20260507232212 48 354 3.0 7.0 0.00 0.00 0.00 47 1008.9
20260507231503 48 355 2.0 5.0 0.00 0.00 0.00 47 1008.9
20260507231003 48 3 2.0 4.0 0.00 0.00 0.00 46 1009.0
20260507230503 49 8 3.0 8.0 0.00 0.00 0.00 47 1008.9
20260507230004 49 5 4.0 11.0 0.00 0.00 0.00 46 1008.9
20260507225503 49 6 4.0 11.0 0.00 0.00 0.00 46 1008.8
20260507225003 49 7 5.0 11.0 0.00 0.00 0.00 47 1008.8
20260507224504 49 6 5.0 12.0 0.00 0.00 0.00 46 1008.8
20260507224003 49 2 5.0 12.0 0.00 0.00 0.00 46 1008.8
20260507223503 49 355 5.0 12.0 0.00 0.00 0.00 46 1008.8
20260507223003 49 353 5.0 11.0 0.00 0.00 0.00 46 1008.6
20260507222713 49 353 4.0 11.0 0.00 0.00 0.00 46 1008.6
20260507222003 50 353 5.0 12.0 0.00 0.00 0.00 46 1008.8
20260507221713 50 354 5.0 12.0 0.00 0.00 0.00 45 1008.6
20260507221003 50 357 6.0 10.0 0.00 0.00 0.00 44 1008.6
20260507220503 51 6 5.0 10.0 0.00 0.00 0.00 43 1008.6
20260507220003 51 4 3.0 9.0 0.00 0.00 0.00 44 1008.6
20260507215713 51 4 3.0 9.0 0.00 0.00 0.00 44 1008.6
20260507215003 51 6 4.0 9.0 0.00 0.00 0.00 42 1008.5
20260507214713 51 16 5.0 11.0 0.00 0.00 0.00 42 1008.6
20260507214003 51 24 5.0 11.0 0.00 0.00 0.00 44 1008.5
20260507213503 51 1 3.0 11.0 0.00 0.00 0.00 40 1008.5
20260507213214 51 105 3.0 10.0 0.00 0.00 0.00 39 1008.6
20260507212713 51 22 4.0 11.0 0.00 0.00 0.00 40 1008.5
20260507212003 51 30 5.0 12.0 0.00 0.00 0.00 42 1008.5
20260507211713 51 23 4.0 12.0 0.00 0.00 0.00 44 1008.6
20260507211214 51 357 2.0 6.0 0.00 0.00 0.00 45 1008.6
20260507210713 51 4 3.0 7.0 0.00 0.00 0.00 41 1008.6
20260507210003 50 336 3.0 8.0 0.00 0.00 0.00 43 1008.6
20260507205503 50 323 4.0 8.0 0.00 0.00 0.00 44 1008.6
20260507205003 50 339 4.0 8.0 0.00 0.00 0.00 42 1008.7
20260507204503 50 342 4.0 10.0 0.00 0.00 0.00 43 1008.7
20260507204003 50 347 4.0 10.0 0.00 0.00 0.00 43 1008.6
20260507203503 50 358 3.0 8.0 0.00 0.00 0.00 43 1008.6
20260507203003 50 356 3.0 8.0 0.00 0.00 0.00 42 1008.6
20260507202503 51 334 2.0 5.0 0.00 0.00 0.00 43 1008.4
20260507202003 51 10 3.0 6.0 0.00 0.00 0.00 43 1008.5
20260507201503 51 22 3.0 8.0 0.00 0.00 0.00 44 1008.5
20260507201003 51 32 3.0 8.0 0.00 0.00 0.00 45 1008.6
20260507200503 52 18 3.0 8.0 0.00 0.00 0.00 42 1008.6
20260507200003 52 47 3.0 11.0 0.00 0.00 0.00 43 1008.6
20260507195503 52 63 3.0 11.0 0.00 0.00 0.00 43 1008.7
20260507195003 52 35 3.0 8.0 0.00 0.00 0.00 44 1008.9
20260507194503 52 20 4.0 8.0 0.00 0.00 0.00 43 1008.9
20260507194003 52 3 4.0 8.0 0.00 0.00 0.00 44 1009.0
20260507193503 51 1 3.0 8.0 0.00 0.00 0.00 47 1009.0
20260507193003 51 359 3.0 8.0 0.00 0.00 0.00 45 1009.0
20260507192503 50 8 3.0 8.0 0.00 0.00 0.00 48 1009.1
20260507192003 50 8 3.0 7.0 0.00 0.00 0.00 47 1009.2
20260507191714 50 4 2.0 6.0 0.00 0.00 0.00 48 1009.2
20260507191003 50 4 3.0 10.0 0.00 0.00 0.00 46 1009.3
20260507190503 50 359 5.0 13.0 0.00 0.00 0.00 45 1009.4
20260507190004 51 349 5.0 13.0 0.00 0.00 0.00 44 1009.2
20260507185503 52 285 3.0 11.0 0.00 0.00 0.00 44 1009.2
20260507185003 52 263 2.0 7.0 0.00 0.00 0.00 43 1009.1
20260507184504 52 321 2.0 7.0 0.00 0.00 0.00 50 1009.2
20260507184213 51 329 2.0 8.0 0.00 0.00 0.00 54 1009.2
20260507183503 49 331 3.0 8.0 0.00 0.01 0.00 48 1009.4
20260507183213 49 333 2.0 8.0 0.00 0.01 0.00 48 1009.5
20260507182503 49 280 2.0 8.0 0.00 0.01 0.00 46 1009.5
20260507182003 49 295 2.0 8.0 0.00 0.01 0.00 49 1009.7
20260507181503 48 283 2.0 9.0 0.00 0.01 0.00 54 1009.7
20260507181212 48 275 3.0 9.0 0.00 0.01 0.00 52 1009.7
20260507180503 48 331 4.0 12.0 0.00 0.01 0.00 51 1009.7
20260507180003 49 341 5.0 12.0 0.00 0.01 0.00 50 1009.6
20260507175503 49 331 4.0 12.0 0.00 0.01 0.00 47 1009.7
20260507175212 50 315 3.0 12.0 0.00 0.01 0.00 46 1009.7
20260507174503 50 266 4.0 11.0 0.00 0.01 0.00 43 1009.6
20260507174003 50 259 4.0 10.0 0.00 0.01 0.00 43 1009.7
20260507173503 50 241 5.0 15.0 0.00 0.01 0.00 44 1009.7
20260507173212 50 244 5.0 15.0 0.00 0.01 0.00 43 1009.7
20260507172503 49 278 3.0 11.0 0.00 0.01 0.00 46 1009.8
20260507172214 49 248 3.0 11.0 0.00 0.01 0.00 43 1009.8
20260507171503 49 250 2.0 10.0 0.00 0.01 0.00 48 1009.9
20260507171003 48 275 2.0 10.0 0.00 0.01 0.00 47 1010.0
20260507170503 49 230 2.0 11.0 0.00 0.01 0.00 47 1010.0
20260507170003 49 217 3.0 11.0 0.00 0.01 0.00 47 1010.1
20260507165503 49 247 4.0 12.0 0.00 0.01 0.00 45 1010.1
20260507165003 49 247 4.0 12.0 0.00 0.01 0.00 44 1010.2
20260507164713 50 236 4.0 11.0 0.00 0.01 0.00 46 1010.0
20260507164214 50 238 4.0 11.0 0.00 0.01 0.00 46 1010.1
20260507163503 50 224 4.0 11.0 0.00 0.01 0.00 47 1010.1
20260507163003 49 265 4.0 13.0 0.00 0.01 0.00 48 1010.2
20260507162503 48 277 4.0 13.0 0.00 0.01 0.00 46 1010.3
20260507162003 48 248 4.0 11.0 0.00 0.01 0.00 48 1010.4
20260507161503 48 242 5.0 14.0 0.00 0.01 0.00 46 1010.3
20260507161003 48 251 6.0 14.0 0.00 0.01 0.00 47 1010.4
20260507160503 48 253 6.0 16.0 0.00 0.01 0.00 47 1010.5
20260507160003 49 259 6.0 16.0 0.00 0.01 0.00 46 1010.4
20260507155503 50 266 3.0 13.0 0.00 0.01 0.00 44 1010.4
20260507155003 50 259 3.0 9.0 0.00 0.01 0.00 41 1010.5
20260507154503 50 261 4.0 12.0 0.00 0.01 0.00 46 1010.6
20260507154003 49 265 5.0 13.0 0.00 0.01 0.00 44 1010.6
20260507153504 49 262 6.0 13.0 0.00 0.01 0.00 47 1010.7
20260507153213 48 263 6.0 12.0 0.00 0.01 0.00 44 1010.7
20260507152503 48 272 3.0 12.0 0.00 0.02 0.00 39 1010.7
20260507152213 48 273 3.0 11.0 0.00 0.02 0.00 39 1010.7
20260507151504 48 217 3.0 13.0 0.00 0.03 0.00 39 1010.8
20260507151213 48 195 4.0 13.0 0.00 0.03 0.00 41 1010.9
20260507150503 48 199 4.0 8.0 0.00 0.03 0.00 41 1010.8
20260507150003 47 193 4.0 11.0 0.00 0.03 0.00 43 1010.8
20260507145503 48 155 4.0 11.0 0.00 0.03 0.00 40 1010.9
20260507145003 48 164 2.0 8.0 0.00 0.03 0.00 50 1010.9
20260507144503 47 161 2.0 4.0 0.00 0.03 0.00 48 1011.0
20260507144003 46 255 3.0 7.0 0.00 0.04 0.00 48 1011.0
20260507143503 46 12 5.0 12.0 0.00 0.04 0.00 50 1011.1
20260507143213 46 18 6.0 12.0 0.00 0.04 0.00 49 1011.0
20260507142503 46 310 4.0 11.0 0.00 0.04 0.00 49 1011.2